Wetbulb
62.82 63.32 65.09 66.21 65.77 65.87 66.11 66.69 67.12 66.92 66.56 66.65 66.36 66.52 66.48 66.27 66.32 66.33 66.06 66.00 65.84 65.49 65.23 65.65 65.30 64.99 64.30 63.01 62.86 63.90 62.16 62.61
61.55 61.73 62.46 61.35 61.13 64.77 64.88 65.54 65.90 66.01 65.74 65.19 64.45 64.36 64.48 64.39 63.46 64.87 64.38 63.85 63.42 63.16 62.87 62.59 61.85 61.35 61.45 61.33 61.37 61.57 59.73 60.05
61.41 61.42 61.12 59.55 58.80 61.59 64.28 65.40 65.56 65.72 65.12 64.47 61.81 60.00 58.97 59.09 62.89 63.71 63.20 62.68 62.24 61.89 61.65 61.03 59.87 59.12 59.47 59.58 58.67 57.62 58.34 58.67
61.70 61.62 60.99 59.93 61.00 59.92 60.37 61.88 61.88 62.14 62.67 61.07 60.03 58.56 57.88 59.15 60.46 62.22 61.15 61.07 60.89 60.28 59.86 58.77 56.01 53.91 54.22 56.40 54.84 55.30 55.91 56.59
62.40 61.83 61.19 60.59 60.60 59.56 59.32 60.10 60.02 60.05 60.28 60.44 59.34 58.78 57.59 56.91 56.15 56.25 54.62 57.77 54.25 54.96 54.40 54.47 54.06 53.59 53.79 54.17 54.61 54.77 54.59 55.49
61.28 60.86 60.45 59.26 59.41 59.76 59.45 59.90 59.68 59.40 59.35 59.16 57.71 56.41 55.25 55.57 55.19 54.99 54.47 53.87 53.22 53.25 53.32 53.54 53.68 53.75 53.81 53.46 53.90 54.03 54.47 55.59
57.57 57.95 57.40 55.69 57.68 58.25 58.90 59.10 59.52 59.17 58.43 57.89 57.15 55.57 54.61 54.67 54.53 53.71 53.58 53.45 53.40 52.95 51.66 51.26 50.45 51.06 51.50 52.31 52.75 53.76 54.21 54.10
56.05 56.16 56.44 54.80 54.08 54.12 55.38 55.08 56.51 56.19 56.11 56.73 56.27 56.25 54.65 53.97 54.03 53.67 52.89 53.16 52.55 50.75 48.94 47.68 46.74 47.81 48.43 47.74 48.64 49.62 51.48 50.47
54.10 55.06 55.57 54.33 53.25 52.21 51.01 51.20 51.60 51.35 52.50 52.97 53.30 55.20 54.67 54.22 53.69 53.26 53.35 52.59 50.77 49.27 48.06 47.19 44.84 45.36 44.19 45.20 45.52 46.62 49.68 47.38
53.19 55.44 54.19 53.61 52.87 52.56 51.53 49.87 49.16 48.77 49.86 51.06 52.30 53.78 53.36 51.66 51.40 51.53 52.25 51.09 50.20 48.81 44.26 43.14 42.31 42.14 42.06 42.40 42.91 44.05 44.44 44.17
51.39 51.08 51.92 51.08 50.88 51.56 50.89 50.15 48.69 47.91 47.96 49.41 50.53 51.74 52.18 49.50 48.62 48.82 49.50 48.29 47.94 47.87 42.86 42.39 41.06 40.91 41.39 41.54 41.62 41.47 42.55 44.43
48.82 48.81 50.04 48.83 46.70 45.74 45.48 45.08 45.32 46.11 45.95 47.33 49.74 50.36 51.01 49.96 48.62 48.19 47.45 45.22 44.44 43.70 42.59 41.95 41.94 41.56 42.92 42.58 41.29 41.68 41.79 41.62
45.14 45.98 46.25 44.85 43.97 43.93 43.40 44.08 44.00 44.60 45.30 46.47 48.06 49.81 50.43 49.80 48.51 47.59 47.11 45.34 45.13 43.71 42.36 41.57 40.79 41.24 40.14 39.52 40.20 41.10 40.92 41.11
44.65 44.55 44.17 43.49 43.22 42.81 42.87 42.20 42.83 43.11 44.12 44.95 45.92 47.38 49.29 49.83 48.50 47.14 46.56 46.37 43.40 42.91 41.90 40.53 40.91 40.41 38.97 37.57 36.15 37.95 38.68 41.08
44.14 44.05 43.91 43.86 44.51 43.81 43.26 42.89 43.06 42.92 44.02 43.42 45.05 45.74 47.52 48.84 49.24 48.12 46.27 46.10 45.82 44.22 42.99 41.12 41.05 39.91 40.60 38.80 34.80 33.56 35.13 38.02
43.84 44.91 45.02 45.97 45.40 44.07 42.96 41.95 41.97 44.13 44.09 44.55 45.49 44.83 44.93 47.01 48.83 47.93 46.15 45.04 44.50 41.62 42.39 41.42 39.83 38.47 39.23 41.80 38.94 38.19 31.96 31.10
44.01 45.26 45.82 45.91 45.22 44.59 43.67 44.00 45.05 44.52 44.36 43.26 43.97 44.05 43.20 44.22 45.25 45.99 43.83 42.63 42.14 43.02 39.28 38.99 39.78 38.19 37.90 36.98 36.08 36.83 36.89 33.69
43.82 44.49 45.13 45.73 45.12 45.25 43.40 41.76 41.77 41.93 42.27 42.26 42.83 42.34 41.07 40.79 42.68 41.32 39.56 38.81 38.44 39.10 40.51 40.50 40.09 40.07 39.03 38.52 37.50 35.35 35.08 34.41
44.65 44.21 44.59 45.26 46.19 43.26 41.14 40.40 39.99 39.88 40.68 41.68 41.31 40.25 36.74 36.69 37.96 38.74 39.10 39.41 40.57 41.28 41.07 41.80 41.30 40.32 40.08 39.54 40.47 38.53 38.34 36.67
43.98 44.60 44.69 44.69 43.13 40.58 40.31 40.85 39.78 39.73 39.88 39.39 38.40 36.76 36.17 38.46 39.69 40.26 40.50 40.66 41.01 42.21 42.02 41.34 40.42 38.66 37.06 37.83 38.20 38.55 38.58 37.77
MSLP
1017.61 1017.82 1018.03 1018.17 1018.03 1018.17 1018.18 1018.25 1018.31 1018.57 1018.74 1018.99 1019.14 1019.05 1019.03 1018.96 1018.86 1018.80 1018.75 1018.77 1018.85 1018.91 1018.87 1018.89 1018.88 1019.00 1019.00 1018.92 1018.87 1018.76 1018.89 1018.94
1018.14 1018.13 1018.19 1018.13 1018.28 1018.26 1018.22 1018.28 1018.56 1018.71 1018.91 1019.11 1019.14 1019.17 1019.14 1019.07 1019.04 1018.99 1018.99 1019.07 1019.15 1019.16 1019.10 1018.97 1018.99 1019.08 1019.06 1019.12 1018.98 1018.98 1018.98 1019.02
1018.12 1018.22 1018.24 1018.31 1018.26 1018.21 1018.30 1018.45 1018.60 1018.79 1018.97 1019.10 1019.26 1019.39 1019.42 1019.43 1019.29 1019.21 1019.15 1019.11 1019.06 1019.05 1019.05 1019.05 1019.02 1019.05 1019.16 1019.22 1019.30 1019.27 1019.14 1019.17
1018.08 1018.09 1018.20 1018.28 1018.14 1018.30 1018.48 1018.55 1018.68 1018.82 1018.95 1019.12 1019.33 1019.41 1019.41 1019.54 1019.54 1019.44 1019.37 1019.37 1019.34 1019.29 1019.23 1019.15 1019.21 1019.32 1019.22 1019.11 1019.23 1019.32 1019.34 1019.19
1017.96 1017.90 1018.08 1018.20 1018.29 1018.37 1018.58 1018.68 1018.82 1018.91 1019.00 1019.19 1019.39 1019.53 1019.61 1019.70 1019.70 1019.69 1019.70 1019.59 1019.73 1019.72 1019.63 1019.49 1019.42 1019.39 1019.31 1019.20 1019.13 1019.16 1019.35 1019.47
1017.80 1017.76 1018.03 1018.14 1018.32 1018.39 1018.50 1018.59 1018.76 1018.95 1019.07 1019.09 1019.27 1019.44 1019.51 1019.53 1019.55 1019.54 1019.58 1019.62 1019.64 1019.65 1019.73 1019.67 1019.52 1019.37 1019.32 1019.30 1019.23 1019.12 1019.06 1019.06
1017.61 1017.78 1018.09 1018.20 1018.34 1018.52 1018.56 1018.58 1018.68 1018.77 1018.99 1019.07 1019.28 1019.48 1019.52 1019.51 1019.55 1019.61 1019.65 1019.64 1019.64 1019.65 1019.65 1019.72 1019.75 1019.63 1019.48 1019.29 1019.19 1019.14 1019.00 1018.86
1017.63 1018.04 1018.31 1018.48 1018.63 1018.66 1018.62 1018.66 1018.69 1018.85 1018.94 1018.98 1019.13 1019.30 1019.46 1019.56 1019.54 1019.55 1019.54 1019.46 1019.47 1019.56 1019.67 1019.70 1019.70 1019.62 1019.36 1019.20 1019.10 1019.01 1018.90 1018.82
1017.89 1018.26 1018.34 1018.50 1018.52 1018.51 1018.53 1018.63 1018.70 1018.86 1018.95 1018.96 1019.00 1019.06 1019.16 1019.25 1019.33 1019.34 1019.20 1019.26 1019.37 1019.48 1019.51 1019.58 1019.61 1019.46 1019.43 1019.28 1019.16 1019.00 1018.90 1018.89
1018.23 1018.25 1018.35 1018.46 1018.57 1018.65 1018.76 1018.81 1018.81 1018.80 1018.72 1018.66 1018.64 1018.61 1018.64 1018.78 1018.86 1018.80 1018.69 1018.96 1019.15 1019.33 1019.54 1019.63 1019.61 1019.55 1019.45 1019.29 1019.24 1019.09 1018.94 1018.83
1018.14 1018.30 1018.36 1018.45 1018.43 1018.63 1018.86 1018.79 1018.70 1018.49 1018.46 1018.44 1018.38 1018.42 1018.36 1018.46 1018.35 1018.16 1018.21 1018.47 1018.60 1018.80 1019.03 1019.15 1019.37 1019.35 1019.28 1019.15 1019.14 1019.10 1018.93 1018.63
1017.84 1018.19 1018.38 1018.37 1018.50 1018.72 1018.81 1018.74 1018.43 1018.27 1018.00 1017.93 1017.83 1017.79 1017.77 1017.98 1017.95 1017.92 1018.09 1018.37 1018.42 1018.57 1018.61 1018.67 1018.73 1018.76 1018.86 1018.82 1018.76 1018.66 1018.72 1018.70
1017.89 1018.15 1018.23 1018.36 1018.70 1019.02 1019.04 1019.01 1018.46 1018.14 1017.71 1017.28 1017.31 1017.32 1017.25 1017.36 1017.39 1017.42 1017.57 1017.74 1017.55 1017.67 1018.02 1018.36 1018.56 1018.59 1018.92 1018.68 1018.38 1018.12 1018.19 1018.41
1017.87 1017.93 1018.19 1018.39 1018.66 1018.76 1018.95 1018.97 1018.58 1018.35 1017.77 1017.36 1017.14 1016.93 1016.71 1016.75 1016.64 1016.57 1016.72 1017.03 1017.06 1017.13 1017.30 1017.68 1017.82 1017.99 1018.49 1018.99 1018.80 1018.38 1018.10 1017.92
1018.13 1018.27 1018.42 1018.68 1018.82 1018.86 1018.82 1018.77 1018.50 1018.19 1017.61 1017.29 1016.66 1016.53 1016.35 1016.25 1015.93 1015.90 1015.93 1016.07 1016.06 1016.10 1016.45 1016.87 1017.21 1017.53 1017.61 1018.02 1018.70 1018.46 1018.38 1017.75
1018.38 1018.54 1018.68 1018.73 1018.75 1018.82 1019.14 1019.14 1019.00 1018.22 1017.76 1017.25 1016.69 1016.28 1016.08 1015.79 1015.53 1015.38 1015.51 1015.66 1015.71 1015.78 1016.10 1016.54 1017.05 1017.69 1017.93 1017.76 1017.77 1017.82 1018.25 1018.16
1018.98 1018.81 1018.73 1018.80 1018.77 1018.76 1018.79 1018.75 1018.56 1018.17 1017.77 1017.36 1016.72 1016.07 1015.77 1015.42 1015.24 1014.97 1015.05 1015.20 1015.52 1015.81 1016.24 1016.49 1016.66 1017.50 1017.87 1018.18 1018.38 1018.16 1018.27 1018.49
1019.18 1018.90 1018.82 1018.57 1018.59 1018.68 1018.89 1018.93 1018.60 1018.10 1017.48 1017.24 1016.58 1016.03 1015.66 1015.40 1014.91 1015.04 1015.30 1015.64 1016.14 1016.44 1016.38 1016.55 1017.50 1017.50 1018.15 1018.57 1018.71 1018.88 1018.75 1018.69
1019.49 1019.45 1019.43 1019.34 1019.25 1019.02 1018.81 1018.55 1018.22 1017.91 1017.24 1016.73 1016.40 1016.13 1015.99 1015.72 1015.42 1015.43 1015.75 1016.24 1016.67 1016.85 1017.06 1017.31 1017.44 1017.71 1018.56 1018.48 1018.65 1019.18 1019.13 1018.92
1019.99 1019.88 1019.82 1019.68 1019.50 1019.10 1018.65 1018.32 1018.11 1017.61 1017.04 1016.64 1016.42 1016.28 1016.29 1016.18 1016.18 1016.10 1016.16 1016.24 1016.50 1016.77 1017.25 1017.65 1017.82 1017.85 1018.42 1018.79 1018.79 1018.86 1018.59 1018.37
Wind_Speed
4 3 3 4 4 3 4 4 4 4 6 7 6 7 7 8 9 9 9 9 9 9 9 7 8 10 12 11 11 11 6 5
3 2 2 3 1 3 3 3 2 3 5 5 6 6 5 5 6 5 6 8 9 10 10 10 10 11 11 10 9 9 5 5
3 4 3 3 2 1 1 3 2 2 3 5 4 2 2 3 3 4 5 5 5 6 7 8 9 11 11 10 8 3 4 3
5 5 4 3 2 2 2 1 1 2 3 3 2 3 1 1 1 1 2 2 4 7 7 7 6 3 3 7 2 3 3 4
6 6 5 4 3 3 2 2 1 1 2 3 2 0 0 0 1 1 2 4 2 3 4 3 5 4 4 4 3 3 1 1
6 6 5 5 3 3 3 2 2 2 3 3 2 1 2 3 2 2 1 1 1 1 1 2 3 4 3 3 4 4 3 1
8 6 5 3 3 2 2 3 3 3 3 3 3 3 3 2 3 2 2 2 1 1 1 1 1 2 3 2 3 3 4 3
6 5 5 4 3 4 3 2 3 3 3 4 5 4 4 3 3 3 3 3 2 2 2 1 1 1 2 3 3 3 3 4
6 5 4 5 4 3 3 3 3 3 3 5 6 5 5 5 4 4 4 4 4 2 2 1 2 2 2 2 2 3 2 3
5 4 5 4 4 3 2 2 3 4 4 4 6 6 6 5 5 5 4 4 4 3 3 2 3 2 2 3 3 3 3 2
6 5 7 5 3 2 3 4 4 5 4 5 6 6 7 6 5 5 6 5 5 4 4 4 4 4 4 3 3 3 3 1
6 5 5 4 1 1 3 4 5 4 5 5 7 6 8 7 5 6 5 4 4 4 6 4 4 4 3 4 4 4 3 3
6 6 6 3 1 2 2 4 3 4 5 7 7 7 8 8 7 6 6 7 10 8 5 6 5 3 1 2 3 4 4 4
7 7 3 3 1 1 1 2 3 4 4 6 7 8 9 9 10 10 9 8 7 7 7 4 4 5 4 2 3 3 2 5
3 3 4 2 3 2 2 2 3 3 4 4 6 7 9 9 11 11 10 9 10 11 9 9 7 3 5 4 1 6 1 2
5 5 5 3 4 2 2 2 3 4 4 4 8 7 8 9 10 10 10 6 7 4 3 3 3 3 0 1 1 3 3 3
4 5 6 4 4 2 4 6 5 5 6 8 8 8 7 9 8 8 6 4 3 4 5 5 3 3 2 1 3 2 2 2
7 8 7 9 9 8 7 6 7 6 6 6 5 4 4 5 3 3 5 7 6 5 7 9 6 5 3 2 0 2 1 2
7 9 8 8 7 6 6 6 6 7 8 6 7 5 3 5 6 8 7 6 6 6 6 6 6 5 4 4 4 5 5 5
7 7 7 7 7 8 7 8 5 6 7 7 4 1 3 4 5 6 6 6 5 6 5 4 3 2 2 5 5 6 5 5
Wind_Direction
163 142 146 136 104 119 112 117 113 90 70 63 58 61 52 42 35 35 35 37 39 38 28 14 24 43 45 34 23 18 12 0
173 155 126 101 162 197 149 150 152 104 90 96 83 68 65 60 47 47 50 58 57 53 45 30 33 38 41 38 36 28 14 17
177 194 173 171 178 199 171 189 177 133 122 123 103 115 82 71 91 79 75 64 60 51 48 44 29 17 20 32 35 17 25 17
205 206 206 192 224 159 155 175 168 162 160 157 154 163 147 137 70 110 86 72 33 31 32 37 41 35 18 24 41 35 21 353
206 204 209 208 225 203 190 168 169 212 202 188 192 165 331 356 315 355 358 9 15 29 16 12 11 11 5 358 360 17 86 150
210 208 212 222 227 217 209 186 183 210 228 223 207 207 227 231 224 224 233 274 323 351 358 320 330 332 337 339 345 341 341 331
200 188 202 212 217 221 211 216 208 213 214 202 194 229 240 242 253 258 258 264 249 275 309 322 339 327 334 347 346 343 340 340
192 187 190 185 193 198 212 216 218 204 220 221 222 222 225 224 238 242 245 227 234 230 237 287 305 303 322 341 328 336 338 341
181 180 185 199 205 195 195 211 194 217 234 238 237 230 222 217 222 230 227 214 217 233 263 267 295 305 287 301 315 313 307 334
172 176 189 212 219 228 235 238 223 236 237 231 233 231 219 216 215 226 214 204 200 200 206 240 266 269 289 297 299 305 295 317
178 205 211 209 238 253 256 251 236 234 235 232 234 234 227 218 216 220 203 198 204 197 208 188 198 226 236 246 250 251 251 269
173 206 220 204 199 276 273 273 260 244 232 232 230 227 225 218 227 223 202 207 216 206 209 209 205 207 224 249 253 251 231 231
193 196 216 157 193 240 268 249 285 272 256 245 241 236 229 223 230 224 206 208 215 202 187 203 237 208 165 284 271 241 246 230
211 221 238 225 244 301 302 313 289 265 276 286 263 249 241 232 230 226 212 216 222 207 183 191 215 178 174 79 301 314 286 229
296 297 296 300 279 295 308 284 298 311 298 277 272 255 255 240 242 237 229 213 221 217 205 191 213 199 203 161 149 227 308 297
330 331 344 351 1 353 312 257 284 274 276 280 292 294 273 262 252 243 239 231 229 196 150 157 116 165 335 226 344 133 186 310
50 83 59 25 19 24 350 327 292 286 294 296 294 288 273 272 265 258 229 178 159 128 97 94 103 121 82 29 351 356 9 229
22 23 12 8 4 349 333 303 301 305 299 292 280 281 296 309 304 79 79 80 73 82 84 81 53 65 47 16 339 326 354 316
6 14 356 346 344 329 313 306 308 295 295 294 306 314 360 29 80 90 82 82 80 71 63 55 56 53 2 351 352 317 288 266
354 355 337 324 318 330 331 331 304 296 294 305 295 178 132 101 89 99 110 115 106 77 56 47 59 55 310 273 282 262 242 246